Find Starlink 36198

NORAD ID: 67167 Int'l Des: 2025-303 Owner: SPXS Country: US Constellation: starlink operational
LEOCIRCULAR

現在のビュー

3D地球を読み込み中...

About Starlink 36198

Starlink 36198 (NORAD 67167) is a starlink constellation satellite (v2 mini) launched Dec 17, 2025 by SPXS of US. It operates in LEO, CIRCULAR orbit with a mass of 575.00 kg.

Starlink 36198について

説明を読み込み中...

次回通過

Passes for default location (London). Set your location on the main map for personalized predictions.

高度履歴

Loading altitude history...

軌道要素

1 67167U 25303E 26194.38084771 .00008536 00000-0 31928-3 0 9998
2 67167 43.0006 321.2544 0001179 262.1466 97.9252 15.27589507 31959
Epoch: Jul 13, 2026 • Age: 17 hours

現在のステータス

高度 484.5 km
遠地点 / 近地点 N/A
速度 7.62 km/s
衛星直下点 -10.92°S, 168.02°W
打ち上げ日 Dec 17, 2025
運用期間 0.5 years
タイプ internet

技術仕様

分類 Payload
質量 575.00 kg
乾燥質量 530.00 kg
総質量 575.00 kg
長さ 0.30 m
直径 4.10 m
スパン 29.00 m
形状 Box + pan
製造者 SPXS
バスタイプ Starlink V2MO
フェーズステータス In Orbit
所有者/国 SPXS/US

Most Searched